Location: ????????????????
(48.5113°N, 34.6021°E)
Time: 16:53:52
(UTC+00:00)

Daily predictions for brighter satellites

Satellite Brightness Start Highest point End
(mag) Time Altitude Azimuth Time Altitude Azimuth Time Altitude Azimuth
Okean 1-7 3.0 18:06:40 10° S 18:10:57 76° E 18:15:13 10° NNE
STARLINK-1124 4.3 18:07:55 10° WNW 18:11:59 52° NNE 18:16:03 10° E
SL-8 R/B 3.7 18:07:28 10° WSW 18:12:17 80° SSE 18:17:07 10° E
STARLINK-1204 3.8 18:09:13 10° SW 18:13:13 49° SE 18:17:14 10° ENE
NOSS 2-3 (C) 3.7 18:09:55 10° SSW 18:14:08 58° SE 18:19:07 10° NE
STARLINK-1088 3.7 18:10:41 10° WNW 18:14:49 73° SSW 18:18:57 10° SE
STARLINK-1122 4.3 18:12:54 10° WNW 18:16:59 54° NNE 18:21:04 10° E
SPOT 3 Rocket 4.3 18:12:33 10° S 18:17:35 53° W 18:22:38 10° NNW
STARLINK-1238 3.7 18:14:09 10° SW 18:18:11 53° SE 18:22:15 10° ENE
STARLINK-1115 3.7 18:15:39 10° WNW 18:19:47 69° SSW 18:23:54 10° SE
Cosmos 1190 Rocket 4.1 18:15:35 10° NNW 18:20:48 79° WSW 18:26:02 10° SSE
Cosmos 2278 Rocket 2.6 18:15:47 10° S 18:21:04 42° ESE 18:26:23 10° NE
STARLINK-1126 4.2 18:17:55 10° WNW 18:22:01 56° NNE 18:26:06 10° E
STARLINK-1201 3.7 18:19:05 10° SW 18:23:09 57° SSE 18:27:14 10° ENE
STARLINK-1076 3.8 18:20:39 10° WNW 18:24:45 64° SSW 18:28:45 11° SE
SPOT 1/Viking Rocket 4.0 18:19:49 10° SE 18:24:46 49° ENE 18:29:44 10° N
Cosmos 1975 2.9 18:20:47 10° N 18:24:52 83° W 18:28:54 10° S
Cosmos 1140 Rocket 3.6 18:20:20 10° NNW 18:25:33 79° WSW 18:30:46 10° SSE
Cosmos 1624 Rocket 4.0 18:20:22 10° SSW 18:25:39 73° ESE 18:31:00 10° NNE
Cosmos 1844 Rocket 3.9 18:21:07 10° SW 18:26:35 48° NW 18:32:04 10° NNE
STARLINK-1082 4.2 18:22:52 10° WNW 18:26:58 58° NNE 18:31:04 10° E
Cosmos 2221 Rocket 4.1 18:23:36 10° SSE 18:27:51 43° E 18:32:09 10° NNE
ERBS 3.2 18:25:08 10° S 18:27:55 26° SE 18:30:43 10° ENE
STARLINK-1206 3.6 18:24:01 10° SW 18:28:07 61° SSE 18:32:12 10° ENE
USA 245 3.0 18:25:09 10° SSE 18:28:35 54° ENE 18:31:24 10° N
STARLINK-1092 3.8 18:25:36 10° WNW 18:29:42 60° SSW 18:33:30 12° SE
Meteor 1-19 Rocket 4.3 18:25:41 10° S 18:31:18 87° E 18:37:08 10° NNE
STARLINK-1100 4.1 18:27:52 10° WNW 18:31:59 60° NNE 18:36:05 10° E
STARLINK-1205 3.6 18:28:59 10° SW 18:33:04 66° SSE 18:37:12 10° ENE
Okean 1 4.3 18:29:58 10° SSW 18:33:55 51° WNW 18:37:54 10° N
STARLINK-1080 3.9 18:30:39 10° WNW 18:34:43 56° SSW 18:38:20 13° SE
STARLINK-1083 4.0 18:32:49 10° WNW 18:36:57 62° NNE 18:41:03 10° E
Resurs 01 Rocket 2.5 18:32:48 10° S 18:37:07 49° W 18:41:28 10° NNW
STARLINK-1218 3.5 18:33:55 10° SW 18:38:02 70° SSE 18:42:10 10° ENE
Cosmos 1782 Rocket 4.3 18:34:06 10° NNW 18:38:30 55° W 18:42:52 10° S
Sich 1 Rocket 3.8 18:34:07 10° NNW 18:38:44 82° W 18:43:18 10° S
STARLINK-1090 4.0 18:35:36 10° WNW 18:39:38 52° SW 18:43:05 14° SE
Cosmos 1371 Rocket 4.2 18:34:57 10° SSW 18:40:13 78° WNW 18:45:28 10° NNE
SeaSat 1 4.4 18:40:01 10° E 18:40:44 10° E 18:41:28 10° ESE
STARLINK-1125 3.9 18:37:49 10° WNW 18:41:57 65° NNE 18:46:05 10° ESE
Cosmos 2279 Rocket 4.1 18:35:54 10° N 18:42:08 65° ENE 18:48:05 11° SSE
Meteor 1-4 Rocket 2.5 18:38:58 10° SSW 18:42:25 80° WNW 18:45:54 10° N
STARLINK-1254 3.5 18:38:52 10° SW 18:43:00 75° SSE 18:47:09 10° ENE
Cosmos 1515 4.1 18:39:56 10° SSW 18:43:42 63° W 18:47:31 10° N
STARLINK-1089 4.1 18:40:36 10° WNW 18:44:36 48° SW 18:47:51 15° SE
ERS-1 Rocket 3.3 18:40:15 12° SE 18:44:44 53° ENE 18:49:39 10° N
Cosmos 1437 Rocket 3.8 18:42:28 14° SE 18:45:01 26° E 18:48:14 10° NE
STARLINK-1109 3.9 18:42:47 10° WNW 18:46:56 68° NNE 18:51:04 10° ESE
Cosmos 1954 Rocket 4.1 18:41:46 10° NNW 18:47:02 79° WSW 18:52:00 12° SSE
STARLINK-1231 3.5 18:43:51 10° WSW 18:47:59 80° SSE 18:52:09 10° ENE
STARLINK-1107 4.2 18:45:36 10° WNW 18:49:34 45° SW 18:52:39 15° SSE
Abrixas rocket 1.8 18:47:51 10° W 18:50:48 89° S 18:53:46 10° E
Terra 2.7 18:47:10 13° SE 18:50:56 38° ENE 18:55:20 10° N
STARLINK-1091 3.8 18:47:46 10° WNW 18:51:55 71° NNE 18:55:54 11° ESE
Okean 2 Rocket 3.1 18:48:16 10° N 18:52:44 87° E 18:56:47 12° S
STARLINK-1232 3.5 18:48:49 10° WSW 18:52:58 84° SSE 18:57:07 10° ENE
ISS -3.7 18:49:38 10° WNW 18:53:02 80° NNE 18:55:57 13° ESE
STARLINK-1212 3.7 18:50:59 10° W 18:54:02 52° NNW 18:57:06 10° ENE
STARLINK-1234 4.1 18:51:07 10° W 18:54:13 46° NNW 18:57:19 10° ENE
STARLINK-1105 3.7 18:51:27 10° W 18:54:30 52° NNW 18:57:34 10° ENE
STARLINK-1066 4.3 18:50:38 10° WNW 18:54:33 42° SW 18:57:27 16° SSE
STARLINK-1247 3.8 18:52:20 10° W 18:55:24 52° NNW 18:58:27 10° ENE
Meteor 1-12 Rocket 4.2 18:49:47 10° N 18:55:29 87° E 19:00:47 12° S
STARLINK-1224 4.4 18:51:57 10° SSW 18:55:31 29° SE 18:59:07 10° ENE
Spot 2 Rocket 3.7 18:50:34 10° S 18:55:34 70° WSW 19:00:38 10° NNW
STARLINK-1227 3.8 18:52:48 10° W 18:55:50 51° NNW 18:58:53 10° ENE
COSMOS 2406 3.8 18:50:53 10° NW 18:56:30 52° WSW 19:01:58 10° S
STARLINK-1226 3.8 18:53:42 10° W 18:56:45 51° NNW 18:59:49 10° ENE
STARLINK-1072 3.7 18:52:45 10° WNW 18:56:54 75° NNE 19:00:41 12° ESE
STARLINK-1215 3.8 18:54:36 10° W 18:57:39 51° NNW 19:00:43 10° ENE
Lacrosse 5 1.9 18:52:33 10° NW 18:57:39 85° NE 19:01:53 15° SE
STARLINK-1208 3.6 18:53:48 10° WSW 18:57:57 89° SSE 19:02:07 10° ENE
Cosmos 1634 Rocket 4.4 18:53:02 10° NNW 18:59:16 64° W 19:05:30 10° S
STARLINK-1217 3.8 18:56:25 10° W 18:59:27 50° NNW 19:02:31 10° ENE
STARLINK-1081 4.4 18:55:38 10° WNW 18:59:30 39° SW 19:02:14 17° SSE
BREEZE-M DEB 3.8 18:59:10 19° SE 18:59:33 19° SE 19:02:50 10° E
STARLINK-1229 3.9 18:57:18 10° W 19:00:21 49° NNW 19:03:23 10° ENE
STARLINK-1225 4.3 18:56:48 10° SSW 19:00:27 31° SE 19:04:08 10° ENE
Cosmos 676 Rocket 4.4 18:56:00 10° NNW 19:01:09 59° WSW 19:05:56 12° S
Meteor 2-4 Rocket 3.7 18:55:48 10° SSW 19:01:11 84° WNW 19:06:35 10° N
STARLINK-1270 3.9 18:58:12 10° W 19:01:15 49° NNW 19:04:19 10° ENE
STARLINK-1096 3.7 18:57:45 10° WNW 19:01:55 78° NNE 19:05:28 14° ESE
STARLINK-1271 3.6 18:58:46 10° WSW 19:02:55 87° NNW 19:07:05 10° ENE
STARLINK-1189 3.9 19:00:01 10° W 19:03:03 48° NNW 19:06:06 10° ENE
STARLINK-1209 4.3 19:00:09 10° W 19:03:16 43° NNW 19:06:23 10° ENE
STARLINK-1188 3.9 19:00:57 10° W 19:03:59 48° NNW 19:07:02 10° ENE
STARLINK-1235 4.2 19:01:42 10° W 19:04:41 43° NNW 19:07:41 10° ENE
STARLINK-1187 4.1 19:02:05 10° W 19:05:04 44° NNW 19:08:04 10° ENE
Okean 1 Rocket 3.8 19:01:06 10° N 19:05:20 40° ENE 19:08:14 18° SE
STARLINK-1230 4.2 19:01:42 10° SSW 19:05:25 33° SE 19:09:10 10° ENE
Cosmos 371 Rocket 3.4 19:00:54 10° S 19:05:39 57° ESE 19:10:27 10° NNE
Cosmos 2151 Rocket 3.6 19:01:40 10° N 19:06:13 85° E 19:09:51 16° S
STARLINK-1191 4.0 19:03:24 10° W 19:06:26 46° NNW 19:09:27 10° ENE
STARLINK-1079 3.6 19:02:44 10° WNW 19:06:54 82° NNE 19:10:16 15° ESE
STARLINK-1221 4.0 19:04:18 10° W 19:07:19 46° NNW 19:10:20 10° ENE
SAR-Lupe-2 3.9 19:04:01 10° N 19:07:38 69° WNW 19:11:12 10° SSW
Meteor 1-13 Rocket 4.2 19:02:21 10° S 19:07:54 75° E 19:13:37 10° NNE
STARLINK-1154 3.7 19:03:45 10° WSW 19:07:54 83° NNW 19:12:04 10° ENE
STARLINK-1222 4.0 19:05:12 10° W 19:08:13 46° NNW 19:11:15 10° ENE
Cosmos 2056 Rocket 4.3 19:03:43 10° SW 19:08:43 53° WNW 19:13:45 10° NNE
STARLINK-1214 4.0 19:06:08 10° W 19:09:09 45° NNW 19:12:11 10° ENE
STARLINK-1243 4.1 19:06:33 10° SSW 19:10:21 36° SE 19:14:10 10° ENE
STARLINK-1116 3.6 19:07:42 10° WNW 19:11:53 87° NNE 19:15:02 17° ESE
STARLINK-1197 3.7 19:08:44 10° WSW 19:12:53 79° NNW 19:17:02 10° ENE
STARLINK-1236 4.0 19:11:28 10° SSW 19:15:20 39° SE 19:19:12 10° ENE
SL-4 R/B 1.4 19:12:38 10° NW 19:15:48 67° WSW 19:17:16 27° SSE
STARLINK-1228 4.5 19:12:58 10° W 19:16:14 41° N 19:19:31 10° ENE
STARLINK-1198 3.8 19:13:44 10° WSW 19:17:53 75° NNW 19:22:02 10° ENE
STARLINK-1101 4.5 19:14:54 10° WNW 19:18:58 49° N 19:22:59 10° E
Cosmos 2297 4.3 19:15:36 17° SSE 19:19:26 37° ESE 19:24:37 10° NE
STARLINK-1094 3.5 19:17:41 10° WNW 19:21:51 84° SSW 19:24:37 20° ESE
STARLINK-1199 3.9 19:18:42 10° WSW 19:22:50 71° NNW 19:27:00 10° ENE
STARLINK-1102 4.4 19:19:54 10° WNW 19:23:57 50° NNE 19:28:00 10° E
STARLINK-1269 3.8 19:21:16 10° SW 19:25:13 45° SE 19:29:11 10° ENE
STARLINK-1117 3.5 19:22:39 10° WNW 19:26:49 80° SSW 19:29:23 22° SE
Crew Dragon -0.1 19:25:22 10° WNW 19:27:28 59° SSW 19:27:34 58° S
CARTOSAT-1 3.7 19:24:28 18° S 19:27:34 69° WSW 19:31:54 10° NNW
STARLINK-1210 4.0 19:23:43 10° WSW 19:27:51 68° NNW 19:32:00 10° ENE
STARLINK-1111 4.4 19:24:54 10° WNW 19:28:57 52° NNE 19:33:01 10° E
STARLINK-1200 3.8 19:26:13 10° SW 19:30:12 48° SE 19:34:12 10° ENE
Cosmos 2082 Rocket 2.4 19:24:32 10° NNW 19:30:15 70° WSW 19:34:12 20° SSE
STARLINK-1078 3.6 19:27:39 10° WNW 19:31:48 75° SSW 19:34:11 24° SE
STARLINK-1219 4.0 19:28:42 10° WSW 19:32:50 65° NNW 19:36:58 10° ENE
STARLINK-1073 4.3 19:29:53 10° WNW 19:33:57 53° NNE 19:38:01 10° E
Cosmos 1833 Rocket 3.6 19:29:19 10° NW 19:34:34 41° WSW 19:38:45 15° S
SPOT 5 3.2 19:30:47 18° S 19:34:36 70° WSW 19:39:57 10° NNW
STARLINK-1192 3.7 19:31:09 10° SW 19:35:10 52° SE 19:39:12 10° ENE
USA 215 3.6 19:29:25 10° ESE 19:35:53 64° NNE 19:42:21 10° NW
STARLINK-1108 3.6 19:32:37 10° WNW 19:36:46 70° SSW 19:38:57 26° SE
STARLINK-1211 4.1 19:33:42 10° W 19:37:49 63° NNW 19:41:57 10° ENE
STARLINK-1121 4.3 19:34:51 10° WNW 19:38:57 55° NNE 19:42:58 10° E
Cosmos 1452 Rocket 3.7 19:34:08 10° SSW 19:39:25 77° WNW 19:44:45 10° NNE
BREEZE-M DEB (TANK) 4.0 19:24:39 10° WNW 19:39:36 72° SSW 19:43:02 21° SE
STARLINK-1244 3.6 19:36:04 10° SW 19:40:07 56° SSE 19:44:11 10° ENE
NOSS 2-2 (D) 4.4 19:40:31 23° ESE 19:40:31 23° ESE 19:43:23 10° ENE
Cosmos 1461 3.3 19:39:32 25° S 19:41:26 42° ESE 19:45:32 10° NE
STARLINK-1071 3.6 19:37:36 10° WNW 19:41:44 66° SSW 19:43:44 28° SE
Thor Agena Rocket 4.5 19:37:04 10° NNE 19:41:49 32° E 19:44:04 23° SE
STARLINK-1245 4.2 19:38:43 10° W 19:42:48 60° NNW 19:46:56 10° ENE
STARLINK-1106 4.2 19:39:50 10° WNW 19:43:56 57° NNE 19:47:45 12° E
STARLINK-1138 3.6 19:41:00 10° SW 19:45:04 60° SSE 19:49:10 10° ENE
STARLINK-1110 3.7 19:41:42 10° WNW 19:45:49 62° SSW 19:47:39 30° SE
Cosmos 2369 Rocket 3.6 19:44:30 18° ESE 19:45:57 20° E 19:49:59 10° NE
Cosmos 1378 3.3 19:45:55 32° SSE 19:47:17 53° E 19:50:56 10° NNE
STARLINK-1233 4.3 19:43:43 10° W 19:47:48 58° NNW 19:51:55 10° ENE
EO 1 Del DPAF 4.4 19:44:59 10° NE 19:48:13 26° E 19:48:53 24° ESE
STARLINK-1112 4.1 19:44:51 10° WNW 19:48:57 59° NNE 19:52:33 13° E
Cosmos 1943 Rocket 3.1 19:47:26 23° SE 19:49:19 29° ESE 19:54:01 10° NE
Cosmos 304 Rocket 3.7 19:46:22 20° S 19:49:41 70° ESE 19:54:28 10° NNE
STARLINK-1143 3.5 19:45:56 10° SW 19:50:02 64° SSE 19:54:09 10° ENE
SL-27 R/B 4.4 19:47:56 10° N 19:50:48 21° ENE 19:52:28 16° E
STARLINK-1124 3.7 19:47:34 10° WNW 19:51:39 57° SSW 19:53:17 33° SSE
STARLINK-1204 4.3 19:48:44 10° W 19:52:49 56° NNW 19:56:54 10° ENE
Aureole 2 Rocket 2.1 19:52:13 43° S 19:53:02 64° ESE 19:56:04 10° NNE
Cosmos 1066 Rocket 4.1 19:49:16 18° S 19:53:27 88° W 19:58:51 10° NNE
STARLINK-1203 3.5 19:49:19 10° SW 19:53:30 68° SSE 19:57:40 10° ENE
ATLAS 3B R/B 4.4 19:48:04 10° NW 19:53:49 29° NNE 19:59:40 10° E
STARLINK-1128 4.0 19:49:50 10° WNW 19:53:57 61° NNE 19:57:20 15° E
Cosmos 1805 3.2 19:50:46 10° N 19:54:43 77° E 19:56:18 34° SSE
SL-8 R/B 3.6 19:50:02 10° W 19:54:52 86° S 19:59:15 13° E
STARLINK-1241 3.5 19:50:54 10° SW 19:55:00 69° SSE 19:59:09 10° ENE
CENTAUR R/B 3.9 19:48:48 10° NW 19:56:14 48° NE 20:04:30 10° ESE
STARLINK-1122 3.8 19:52:34 10° WNW 19:56:37 53° SW 19:58:05 34° SSE
STARLINK-1238 4.4 19:53:45 10° W 19:57:49 54° NNW 20:01:54 10° ENE
NOSS 2-2 (E) 3.5 19:57:53 37° SSE 19:58:38 43° ESE 20:02:27 10° NE
STARLINK-1113 4.0 19:54:48 10° WNW 19:58:56 64° NNE 20:02:06 16° E
Cosmos 332 Rocket 4.2 19:54:22 10° SSW 19:59:15 66° WNW 20:04:09 10° NNE
STARLINK-1239 3.5 19:55:52 10° SW 19:59:59 73° SSE 20:04:08 10° ENE
Cosmos 972 Rocket 4.5 19:56:29 16° SSW 20:01:32 86° ESE 20:08:23 10° NNE
STARLINK-1126 3.9 19:57:36 10° WNW 20:01:37 50° SW 20:02:54 36° SSE
NOSS 8 (E) 4.1 20:00:16 18° SW 20:02:30 82° NW 20:05:34 10° NE
STARLINK-1201 4.5 19:58:45 10° W 20:02:49 52° NNW 20:06:54 10° ENE
Cosmos 1674 Rocket 4.4 19:59:48 13° SSW 20:03:25 46° WNW 20:07:41 10° N
STARLINK-1119 3.9 19:59:47 10° WNW 20:03:55 67° NNE 20:06:52 18° E
ERBS 3.3 20:00:51 10° WSW 20:04:03 47° NNW 20:07:18 10° NE
STARLINK-1240 3.5 20:00:50 10° WSW 20:04:58 78° SSE 20:09:07 10° ENE
Cosmos 2278 Rocket 3.6 19:59:57 10° WSW 20:05:13 38° NW 20:10:32 10° NNE
STARLINK-1082 4.0 20:02:33 10° WNW 20:06:32 46° SW 20:07:38 36° S
Cosmos 2026 Rocket 4.2 20:03:40 26° SSE 20:07:09 57° E 20:13:21 10° NNE
STARLINK-1114 3.8 20:04:45 10° WNW 20:08:54 70° NNE 20:11:39 20° ESE
Cosmos 1842 3.7 20:08:22 36° SE 20:09:21 45° E 20:13:06 10° NNE
Cosmos 1378 Rocket 4.2 20:06:23 17° SSW 20:09:36 52° WNW 20:13:55 10° N
STARLINK-1216 3.5 20:05:47 10° WSW 20:09:56 82° SSE 20:14:05 10° ENE
STARLINK-1100 4.1 20:07:34 10° WNW 20:11:30 43° SW 20:12:25 37° S
STARLINK-1130 (DARKSAT) 3.7 20:09:45 10° WNW 20:13:54 73° NNE 20:16:26 23° ESE
EXPRESS MD2 4.0 20:10:42 10° SW 20:14:34 66° SSE 20:22:34 10° ENE
STARLINK-1237 3.5 20:10:45 10° WSW 20:14:55 87° SSE 20:19:05 10° ENE
Cosmos 1726 4.4 20:13:12 10° NNE 20:15:24 15° ENE 20:16:43 13° E
STARLINK-1083 4.2 20:12:32 10° WNW 20:16:26 40° SW 20:17:10 36° S
STARLINK-1084 3.7 20:14:43 10° WNW 20:18:52 77° NNE 20:21:12 25° ESE
SeaSat 1 2.4 20:14:09 10° NNE 20:19:05 68° ESE 20:21:41 28° SSW
STARLINK-1202 3.5 20:15:45 10° WSW 20:19:54 88° NNW 20:24:04 10° ENE
Nadezhda 4 Rocket 4.4 20:16:05 14° SSW 20:21:16 58° WNW 20:27:19 10° N
STARLINK-1125 4.3 20:17:34 10° WNW 20:21:24 37° SW 20:21:58 35° SSW
Okean 2 3.3 20:20:13 38° S 20:21:45 84° E 20:25:55 10° N
NOSS 2-2 (C) 3.1 20:21:09 47° S 20:21:52 58° SE 20:25:47 10° NE
Cosmos 1975 Rocket 3.0 20:20:27 36° S 20:22:14 77° E 20:26:41 10° NNE
ATLAS 2AS CENTAUR R/B 4.0 20:20:37 23° SE 20:23:11 27° ESE 20:29:34 10° ENE
STARLINK-1098 3.6 20:19:42 10° WNW 20:23:52 81° NNE 20:26:01 28° ESE
Abrixas rocket 2.4 20:23:22 10° W 20:25:43 48° WSW 20:25:43 48° WSW
STARLINK-1109 4.4 20:22:35 10° WNW 20:26:21 34° SW 20:26:45 34° SSW
BREEZE-M DEB (TANK) 4.2 20:24:19 25° SSW 20:26:44 50° SE 20:39:27 10° ENE
NOSS 3-2 (A) 4.0 20:20:48 10° NW 20:28:15 85° NE 20:34:02 22° SE
Terra 3.2 20:26:03 18° SW 20:28:45 30° W 20:32:57 10° NNW
STARLINK-1123 3.6 20:24:41 10° WNW 20:28:52 85° NNE 20:30:47 31° ESE
ISS -2.1 20:26:45 10° W 20:28:52 23° WSW 20:28:52 23° WSW
STARLINK-1246 3.7 20:25:42 10° WSW 20:29:50 80° NNW 20:34:01 10° ENE
STARLINK-1091 4.5 20:27:35 10° WNW 20:31:18 32° SW 20:31:31 32° SSW
Cosmos 1110 Rocket 4.2 20:28:46 18° SW 20:32:39 68° WNW 20:37:50 10° NNE
STARLINK-1097 3.5 20:29:39 10° WNW 20:33:49 89° NE 20:35:33 34° ESE
STARLINK-1224 3.7 20:30:42 10° WSW 20:34:50 76° NNW 20:39:00 10° ENE
Cosmos 968 Rocket 4.0 20:30:09 10° NNW 20:35:13 51° ENE 20:37:46 27° SE
USA 238 DEB 3.8 20:29:36 10° NW 20:36:49 89° WSW 20:41:27 26° SE
USA 238 3.8 20:29:41 10° NW 20:36:55 90° SW 20:41:34 26° SE
Cosmos 1242 Rocket 2.7 20:37:39 49° SE 20:38:06 54° E 20:41:43 10° NNE
STARLINK-1099 3.5 20:34:39 10° WNW 20:38:48 86° SSW 20:40:21 38° ESE
STARLINK-1225 3.8 20:35:40 10° WSW 20:39:49 73° NNW 20:43:58 10° ENE
STARLINK-1209 4.4 20:36:54 10° WNW 20:39:57 38° N 20:43:01 10° ENE
Lacrosse 5 3.2 20:36:13 10° WNW 20:40:07 23° SW 20:41:04 22° SW
Spot 4 3.8 20:38:42 37° S 20:40:39 82° WSW 20:45:33 10° NNW
Helios 1A 4.3 20:39:05 23° ESE 20:40:46 31° ENE 20:44:28 10° N
STARLINK-1235 4.5 20:38:00 10° WNW 20:40:56 36° N 20:43:51 10° ENE
Cosmos 1766 4.4 20:39:15 10° NNW 20:42:53 35° W 20:44:15 27° SW
STARLINK-1104 3.5 20:39:35 10° WNW 20:43:45 81° SSW 20:45:06 42° SE
STARLINK-1230 3.9 20:40:41 10° WSW 20:44:49 69° NNW 20:48:58 10° ENE
Cosmos 1271 Rocket 3.1 20:45:10 44° ESE 20:45:41 47° E 20:49:28 10° NNE
STARLINK-1144 3.5 20:44:35 10° WNW 20:48:45 77° SSW 20:49:54 46° SE
STARLINK-1243 3.9 20:45:40 10° WSW 20:49:47 66° NNW 20:53:56 10° ENE
Cosmos 1733 4.2 20:47:01 10° NNW 20:50:33 36° W 20:51:34 30° SW
Cosmos 1486 Rocket 4.0 20:47:46 10° NNW 20:53:07 88° ENE 20:55:16 37° SSE
STARLINK-1228 4.3 20:50:19 10° WNW 20:53:36 42° N 20:56:53 10° E
STARLINK-1103 3.5 20:49:35 10° WNW 20:53:44 72° SSW 20:54:41 50° SE
COSMOS 2455 4.2 20:52:40 21° ESE 20:53:48 22° ESE 20:58:16 10° ENE
Cosmos 1707 3.0 20:53:19 46° SE 20:53:54 51° E 20:57:43 10° NNE
Cosmos 1455 Rocket 3.4 20:49:54 10° NNW 20:54:10 54° W 20:55:29 38° SSW
STARLINK-1236 4.0 20:50:41 10° W 20:54:48 63° NNW 20:58:56 10° ENE
Cosmos 1340 Rocket 3.9 20:52:39 10° N 20:56:25 36° ENE 20:57:36 30° ESE
Cosmos 1953 2.9 20:53:45 10° N 20:57:38 47° ENE 20:58:34 38° ESE
STARLINK-1101 3.5 20:54:34 10° WNW 20:58:41 68° SSW 20:59:27 53° SSE
SL-4 R/B 2.6 20:59:49 28° NNW 20:59:49 28° NNW 21:01:04 10° NNW
Cosmos 1025 Rocket 3.0 20:57:57 47° SSE 20:58:56 64° E 21:03:11 10° NNE
Cosmos 1302 Rocket 4.0 20:57:37 30° SSW 21:00:20 80° WNW 21:05:41 10° NNE
Cosmos 1417 Rocket 4.5 20:57:19 10° N 21:03:39 84° W 21:06:40 34° S
STARLINK-1102 3.6 20:59:33 10° WNW 21:03:39 63° SSW 21:04:14 55° S
Aureole 3 Rocket 4.1 20:59:03 10° NNW 21:04:28 71° W 21:08:11 30° S
STARLINK-1269 4.2 21:00:40 10° W 21:04:46 59° NNW 21:08:52 10° ENE
Cosmos 1758 3.4 21:03:46 10° NNW 21:07:48 70° W 21:08:39 52° SSW
Cosmos 1674 4.3 21:08:04 22° E 21:08:26 22° E 21:11:23 10° NE
STARLINK-1111 3.6 21:04:33 10° WNW 21:08:38 59° SSW 21:09:01 56° S
STARLINK-1200 4.3 21:05:42 10° W 21:09:47 56° NNW 21:13:53 10° ENE
BREEZE M DEB (TANK) 4.3 21:08:41 10° W 21:15:10 - E 21:09:29 16° W
Cosmos 2082 Rocket 4.5 21:11:35 10° WNW 21:13:15 11° W 21:14:55 10° WSW
STARLINK-1073 3.7 21:09:32 10° WNW 21:13:36 55° SW 21:13:48 54° SSW
STARLINK-1192 4.3 21:10:42 10° W 21:14:47 55° NNW 21:18:52 10° ENE
Cosmos 2315 Rocket 4.5 21:08:45 10° N 21:14:49 51° ENE 21:18:01 27° SE
Meteor 2-8 Rocket 4.4 21:10:52 10° N 21:17:01 83° W 21:19:46 35° S
STARLINK-1121 3.8 21:14:31 10° WNW 21:18:33 51° SW 21:18:35 51° SW
USA 215 3.4 21:16:01 32° SSE 21:19:00 55° SW 21:25:26 10° WNW
STARLINK-1244 4.4 21:15:42 10° W 21:19:46 53° NNW 21:23:51 10° ENE
Cosmos 1536 Rocket 3.4 21:20:46 50° SSW 21:21:53 85° W 21:26:16 10° N
STARLINK-1106 3.9 21:19:31 10° WNW 21:23:21 47° SW 21:23:21 47° SW
SL-4 R/B 3.3 21:24:26 30° SE 21:24:26 30° SE 21:28:01 10° ENE
ALOS 2 2.8 21:23:37 44° SSW 21:24:41 58° W 21:29:03 10° NNW
STARLINK-1138 4.5 21:20:42 10° W 21:24:46 51° NNW 21:28:49 10° ENE
Cosmos 1470 3.6 21:21:19 10° NNW 21:24:56 37° W 21:25:34 35° WSW
Cosmos 2228 3.9 21:21:13 10° N 21:25:14 39° ENE 21:26:36 30° ESE
APEX 4.3 21:22:16 33° SSW 21:25:25 77° ESE 21:30:59 10° NNE
SL-27 R/B 3.5 21:22:43 10° NW 21:25:59 32° WSW 21:26:01 32° WSW
STARLINK-1112 4.1 21:24:32 10° WNW 21:28:10 43° SW 21:28:10 43° SW
Cosmos 2369 Rocket 2.3 21:26:15 28° SW 21:29:23 73° WNW 21:35:04 10° NNE
FALCON 9 R/B 4.2 21:30:47 21° SE 21:30:47 21° SE 21:37:38 10° ESE
Cosmos 1992 Rocket 3.9 21:28:24 41° S 21:30:14 77° ESE 21:35:28 10° NNE
S3M 4.1 21:25:41 10° NNW 21:31:46 66° W 21:34:29 34° SSW
Cosmos 1943 Rocket 2.8 21:28:54 19° SW 21:32:46 52° NW 21:38:16 10° NNE
STARLINK-1128 4.2 21:29:32 10° WNW 21:32:56 39° WSW 21:32:56 39° WSW
NOSS 3-2 (C) 4.1 21:27:00 10° NW 21:34:28 68° SW 21:39:11 28° SSE
Cosmos 2292 Rocket 3.2 21:34:27 56° S 21:35:15 80° E 21:38:48 10° NNE
SL-8 R/B 4.0 21:32:38 10° W 21:37:10 43° SSW 21:37:10 43° SSW
Cosmos 1908 3.6 21:33:54 10° N 21:37:39 53° ENE 21:38:23 45° ESE
COSMOS 2487 2.6 21:34:29 10° NNW 21:37:56 60° ENE 21:38:20 55° ESE
STARLINK-1113 4.4 21:34:32 10° WNW 21:37:43 35° WSW 21:37:43 35° WSW
Cosmos 1655 Rocket 4.1 21:35:31 32° SSW 21:38:34 71° W 21:44:50 10° N
GEOS 3 Rocket 4.5 21:36:50 10° ESE 21:41:50 48° NE 21:46:56 10° NNW
NOSS 3-4 (A) 3.4 21:42:27 36° S 21:44:50 63° SE 21:51:06 10° NE
NOSS 3-4 (C) 3.4 21:42:33 36° S 21:44:56 63° SE 21:51:12 10° NE
ATLAS 3B R/B 2.8 21:38:47 10° NW 21:45:34 74° NE 21:51:37 15° SE
CENTAUR R/B 3.2 21:39:31 10° NW 21:47:29 67° SW 21:52:40 27° SSE
ATLAS CENTAUR R/B 2.0 21:49:15 39° SE 21:49:31 39° ESE 21:53:26 10° NE
Cosmos 1726 2.5 21:47:18 10° NNW 21:50:53 47° W 21:51:12 45° WSW
KORONAS-FOTON 3.8 21:52:14 57° SE 21:52:44 64° E 21:56:33 10° NNE
SeaSat 1 4.4 21:52:14 10° N 21:56:14 25° NW 22:00:12 10° W
Cosmos 1606 Rocket 3.4 21:52:29 10° N 21:56:50 84° E 21:57:58 49° SSE
Landsat 4 3.7 21:53:13 10° N 21:56:56 70° WNW 21:57:33 56° SW
Meteor 2-5 Rocket 3.9 21:59:23 35° SSE 22:01:35 59° E 22:07:05 10° NNE
STARLINK-1254 4.5 21:58:48 10° WNW 22:02:52 51° NNE 22:06:55 10° E
RESURS DK-1 3.5 22:03:50 28° ESE 22:04:16 28° ESE 22:07:52 10° NE
Cosmos 1777 Rocket 4.1 21:59:35 10° NNW 22:04:50 71° ENE 22:07:32 29° SE
STARLINK-1212 3.1 22:03:16 10° WNW 22:06:23 68° NNE 22:06:51 56° ENE
STARLINK-1105 3.1 22:03:44 10° WNW 22:06:50 68° NNE 22:07:18 56° ENE
STARLINK-1234 2.9 22:03:41 10° WNW 22:06:48 81° NNW 22:06:48 81° NNW
STARLINK-1247 3.1 22:04:38 10° WNW 22:07:44 69° NNE 22:08:13 56° ENE
STARLINK-1231 4.4 22:03:48 10° WNW 22:07:52 52° NNE 22:11:56 10° E
STARLINK-1227 3.0 22:05:05 10° WNW 22:08:11 69° NNE 22:08:32 61° ENE
STARLINK-1226 3.0 22:05:58 10° WNW 22:09:05 70° NNE 22:09:31 59° ENE
STARLINK-1215 3.0 22:06:52 10° WNW 22:10:00 71° NNE 22:10:23 60° ENE
STARLINK-1217 3.0 22:08:40 10° WNW 22:11:48 73° NNE 22:12:07 64° ENE
STARLINK-1229 3.0 22:09:33 10° WNW 22:12:41 74° NNE 22:12:58 66° ENE
STARLINK-1232 4.4 22:08:47 10° WNW 22:12:52 54° NNE 22:16:57 10° E
Cosmos 1656 Rocket 3.9 22:10:12 29° SW 22:13:07 65° WNW 22:18:42 10° NNE
ATLAS 2AS CENTAUR R/B 3.0 22:08:00 23° SW 22:13:26 87° NW 22:21:25 10° NE
STARLINK-1270 2.9 22:10:28 10° WNW 22:13:36 75° NNE 22:13:52 68° ENE
STARLINK-1189 2.9 22:12:15 10° WNW 22:15:23 77° NNE 22:15:34 72° ENE
Helios 1A 4.1 22:15:41 28° WSW 22:16:18 29° W 22:19:59 10° NW
STARLINK-1188 2.9 22:13:11 10° WNW 22:16:19 78° NNE 22:16:28 74° ENE
STARLINK-1209 3.2 22:13:12 10° WNW 22:15:56 60° WNW 22:15:56 60° WNW
Cosmos 1626 2.6 22:16:18 42° SE 22:16:57 48° E 22:20:33 10° NNE
STARLINK-1235 3.3 22:13:51 10° WNW 22:16:21 53° WNW 22:16:21 53° WNW
Cosmos 1300 3.3 22:13:19 10° N 22:17:03 49° ENE 22:18:12 36° SE
STARLINK-1187 3.0 22:14:16 10° WNW 22:17:00 66° NW 22:17:00 66° NW
STARLINK-1208 4.3 22:13:47 10° WNW 22:17:52 56° NNE 22:21:57 10° E
STARLINK-1191 2.8 22:15:37 10° WNW 22:18:45 80° NNE 22:18:45 80° NNE
STARLINK-1221 2.8 22:16:31 10° WNW 22:19:37 81° NNE 22:19:37 81° NNE
STARLINK-1222 2.8 22:17:25 10° WNW 22:20:28 81° N 22:20:28 81° N
BREEZE-M DEB (TANK) 3.3 22:17:23 10° WNW 22:20:47 56° SSW 22:27:01 10° SE
STARLINK-1214 2.8 22:18:21 10° WNW 22:21:22 81° NNW 22:21:22 81° NNW
IRAS Rocket 4.4 22:18:37 25° SSE 22:21:57 70° ENE 22:27:30 10° NNW
STARLINK-1271 4.2 22:18:45 10° WNW 22:22:51 58° NNE 22:26:57 10° E
Cosmos 2219 4.2 22:18:07 10° NNW 22:23:35 45° NE 22:28:58 10° SE
BREEZE-M DEB (TANK) 2.2 22:18:24 10° W 22:24:15 77° N 22:26:40 10° E
Aureole 3 4.4 22:21:55 10° NNW 22:24:50 24° W 22:24:50 24° W
Helios 1B rocket 2.4 22:20:54 10° NNE 22:25:02 80° WNW 22:26:09 47° SSW
SL-14 R/B 3.4 22:26:17 47° SSE 22:27:08 62° E 22:30:58 10° NNE
STARLINK-1154 4.2 22:23:45 10° WNW 22:27:51 60° NNE 22:31:58 10° E
Timation 2 Rocket 3.9 22:21:48 10° NNW 22:28:13 90° ESE 22:32:18 23° SSE
PSLV R/B 3.7 22:25:43 10° N 22:30:19 76° WNW 22:31:51 41° SSW
STARLINK-1228 3.2 22:27:16 10° WNW 22:30:13 57° WSW 22:30:13 57° WSW
Cosmos 1867 4.0 22:26:41 10° NW 22:31:50 43° WSW 22:33:16 35° SSW
Cosmos 1244 Rocket 4.4 22:29:14 32° S 22:32:19 89° W 22:38:33 10° N
Meteor 2-14 Rocket 4.4 22:29:21 33° S 22:32:19 86° E 22:38:30 10° N
Cosmos 1340 Rocket 4.4 22:29:34 10° NW 22:32:40 21° W 22:33:11 21° W
STARLINK-1197 4.1 22:28:43 10° WNW 22:32:50 62° NNE 22:36:57 10° E
Cosmos 1953 4.3 22:31:09 10° NW 22:33:39 16° W 22:34:15 16° W
SL-16 R/B 3.4 22:28:16 10° SE 22:34:03 47° ENE 22:39:56 10° N
Cosmos 2297 Rocket 3.2 22:30:39 10° NNW 22:36:06 46° NE 22:41:31 10° SE
Cosmos 1892 Rocket 3.6 22:35:22 42° SSW 22:36:45 72° W 22:41:10 10° N
Cosmos 1745 Rocket 4.4 22:34:00 25° SSE 22:37:28 55° E 22:43:27 10° NNE
STARLINK-1198 4.0 22:33:43 10° WNW 22:37:51 65° NNE 22:41:59 10° ESE
COSMOS 2455 2.9 22:35:46 28° SW 22:39:06 77° NW 22:45:11 10° NNE
BREEZE-M R/B 3.8 22:39:21 35° SSE 22:39:47 36° SSE 22:43:00 10° E
STARLINK-1199 3.9 22:38:40 10° WNW 22:42:49 68° NNE 22:46:57 10° ESE
Cosmos 1674 3.9 22:42:53 26° W 22:43:48 30° WNW 22:47:10 10° N
Cosmos 1726 Rocket 4.2 22:40:03 10° NNW 22:44:05 39° W 22:45:06 34° SW
Lacrosse 4 Rocket 4.3 22:41:41 10° N 22:44:51 19° NE 22:47:58 10° E
STARLINK-1210 3.8 22:43:40 10° WNW 22:47:49 71° NNE 22:51:58 10° ESE
STARLINK-60 3.0 22:48:45 52° W 22:49:24 76° NNW 22:52:37 10° ENE
MOZ.5/SAFIR/RUBIN 5/SL-8 4.1 22:46:39 22° SE 22:49:31 61° ENE 22:54:06 10° N
STARLINK-1219 3.8 22:48:38 10° WNW 22:52:48 74° NNE 22:56:57 10° ESE
ADEOS II 4.3 22:51:26 10° NE 22:54:51 17° E 22:58:14 10° SE
Spot 1 4.3 22:54:13 34° S 22:56:15 71° WSW 23:01:11 10° NNW
Cosmos 1437 2.3 22:56:05 73° S 22:56:21 88° E 22:59:22 10° NNE
Cosmos 2084 3.8 22:55:03 37° S 22:56:28 54° SE 23:00:51 10° NE
Starlink 7 placeholder 4.2 22:57:24 24° NE 22:57:24 24° NE 22:58:30 10° NE
STARLINK-1211 3.7 22:53:38 10° WNW 22:57:48 78° NNE 23:01:57 10° ESE
Cosmos 1455 3.8 22:54:58 10° N 22:58:20 30° ENE 23:01:05 14° SE
Meteor 1-29 3.7 22:58:59 10° N 23:02:12 40° WNW 23:02:58 34° WSW
STARLINK-1245 3.6 22:58:36 10° WNW 23:02:46 82° NNE 23:06:55 10° ESE
CZ-2D R/B 2.8 22:57:45 10° NNE 23:02:49 46° E 23:05:58 21° SSE
ATLAS 5 CENTAUR R/B 3.6 23:01:37 10° WNW 23:03:08 14° NNW 23:04:26 10° N
SL-4 R/B 2.3 22:59:59 21° WSW 23:03:14 88° NNW 23:08:00 10° ENE
Resurs 1-4 Rocket 2.7 23:00:59 10° NNE 23:06:09 50° E 23:09:23 22° SSE
STARLINK-1233 3.6 23:03:35 10° WNW 23:07:45 86° NNE 23:11:54 10° ESE
SJ 16-02 1.9 23:04:40 10° NNW 23:09:03 56° ENE 23:13:08 12° SE
DELTA 2 DEB (DPAF) 4.1 23:08:41 32° S 23:10:41 68° WSW 23:15:09 10° NNW
ATLAS CENTAUR R/B 1.5 23:09:15 10° NW 23:11:47 89° NE 23:17:12 10° SE
Cosmos 921 Rocket 3.1 23:10:18 34° SW 23:12:02 66° WNW 23:16:21 10° NNE
Cosmos 2227 Rocket 2.4 23:06:29 10° NNW 23:12:11 71° ENE 23:17:51 10° SE
STARLINK-1204 3.5 23:08:34 10° WNW 23:12:44 89° SW 23:16:54 10° ESE
Cosmos 2058 Rocket 4.1 23:09:07 10° NNW 23:13:03 32° W 23:14:21 27° WSW
Cosmos 1697 Rocket 4.2 23:10:06 14° SSE 23:13:54 27° ESE 23:18:33 10° NE
Cosmos 2369 Rocket 4.4 23:10:37 10° W 23:14:26 18° NW 23:18:16 10° N
STARLINK-1238 3.5 23:13:34 10° WNW 23:17:44 85° SSW 23:21:53 10° ESE
Meteor 2-1 Rocket 4.1 23:12:14 10° NNW 23:17:47 88° W 23:21:42 20° S
STARLINK-29 2.9 23:17:07 40° WSW 23:18:09 83° NNW 23:21:21 10° ENE
GEOS 3 Rocket 4.0 23:17:27 25° S 23:19:56 42° WSW 23:24:56 10° NW
SL-19 R/B 4.4 23:15:16 10° N 23:20:35 62° WNW 23:23:55 24° SW
STARLINK-1201 3.5 23:18:33 10° WNW 23:22:43 80° SSW 23:26:51 10° ESE
Cosmos 1386 Rocket 4.4 23:19:38 25° SSW 23:23:21 78° W 23:29:34 10° N
Meteor 1-24 Rocket 4.3 23:20:52 23° SW 23:23:43 41° WNW 23:28:52 10° N
NPP 4.0 23:19:26 10° NNE 23:24:49 62° ESE 23:28:28 21° S
STARLINK-1240 4.5 23:20:47 10° WNW 23:24:50 52° NNE 23:28:54 10° E
Cosmos 1709 Rocket 4.1 23:22:57 20° S 23:27:19 72° E 23:33:27 10° NNE
STARLINK-1206 3.5 23:23:31 10° WNW 23:27:40 76° SSW 23:31:48 10° SE
Cosmos 1626 Rocket 3.7 23:25:49 30° SSW 23:27:48 60° WNW 23:32:07 10° N
CZ-4C R/B 3.3 23:25:13 17° SSE 23:28:10 30° ESE 23:33:09 10° NE
ATLAS CENTAUR R/B 2.7 23:25:24 15° W 23:28:30 33° NW 23:32:13 10° NNE
STARLINK-1216 4.4 23:25:45 10° WNW 23:29:49 53° NNE 23:33:54 10° E
CZ-4B R/B 3.9 23:24:47 10° NNE 23:29:54 59° ESE 23:33:34 19° S
Cosmos 1656 4.0 23:26:57 23° S 23:30:29 62° ESE 23:36:02 10° NNE
STARLINK-1338 3.8 23:29:44 34° S 23:30:39 42° SE 23:34:02 10° ENE
Cosmos 220 Rocket 4.3 23:29:21 27° SW 23:31:35 57° WNW 23:35:59 10° NNE
Meteor 2-10 Rocket 3.5 23:26:15 10° NNW 23:31:37 87° E 23:35:47 16° SSE
STARLINK-1205 3.5 23:28:30 10° WNW 23:32:38 71° SSW 23:36:46 10° SE
Cosmos 1703 4.1 23:32:13 18° SSE 23:34:49 44° E 23:38:36 10° NNE
STARLINK-1237 4.4 23:30:44 10° WNW 23:34:49 55° NNE 23:38:54 10° E
STARLINK-1371 3.7 23:34:17 33° SSW 23:35:23 45° SE 23:38:49 10° ENE
ATLAS 3B R/B 3.6 23:30:05 10° WNW 23:35:46 29° WSW 23:38:47 21° SSW
STARLINK-1218 3.5 23:33:29 10° WNW 23:37:36 66° SSW 23:41:42 10° SE
STARLINK-1341 3.6 23:36:36 33° SSW 23:37:46 47° SE 23:41:13 10° ENE
Cosmos 990 Rocket 4.0 23:32:33 10° NNW 23:37:51 89° WSW 23:43:06 10° SSE
STARLINK-1202 4.3 23:35:44 10° WNW 23:39:50 57° NNE 23:43:56 10° E
STARLINK-1374 3.5 23:38:54 32° SSW 23:40:10 49° SSE 23:43:38 10° ENE
FALCON 9 DEB 3.1 23:40:04 26° WSW 23:41:51 87° NNW 23:45:20 10° ENE
RESURS DK-1 3.5 23:39:42 18° WSW 23:42:14 34° NW 23:46:03 10° NNE
STARLINK-1254 3.5 23:38:28 10° WNW 23:42:34 62° SSW 23:46:40 10° SE
STARLINK-1339 3.5 23:41:14 31° SSW 23:42:35 51° SSE 23:46:05 10° ENE
OE (NEXTSAT) 4.4 23:41:06 26° WSW 23:42:50 56° S 23:46:15 10° E
STARLINK-1377 3.5 23:43:35 30° SSW 23:45:02 53° SSE 23:48:32 10° ENE
STARLINK-1353 3.4 23:45:57 29° SSW 23:47:29 56° SSE 23:51:00 10° ENE
STARLINK-1231 3.6 23:43:28 10° WNW 23:47:32 58° SSW 23:51:36 10° SE
CZ-4C R/B 4.1 23:46:20 24° SSW 23:48:19 39° W 23:52:26 10° NNW
CBERS-1 4.4 23:43:17 10° NNE 23:48:22 58° ESE 23:52:34 15° S
Cosmos 1812 Rocket 4.0 23:44:26 10° NNW 23:48:43 45° W 23:51:10 23° SSW
STARLINK-1246 4.2 23:45:42 10° WNW 23:49:48 61° NNE 23:53:55 10° E
STARLINK-1375 3.4 23:48:19 28° SW 23:49:58 58° SSE 23:53:30 10° ENE
STARLINK-1350 3.3 23:50:42 27° SW 23:52:27 61° SSE 23:56:00 10° ENE
STARLINK-1232 3.7 23:48:27 10° WNW 23:52:31 54° SW 23:56:33 10° SE
Cosmos 1626 4.3 23:50:51 12° W 23:52:31 15° WNW 23:54:42 10° NNW
Cosmos 2369 4.3 23:48:22 16° S 23:52:43 49° ESE 23:58:09 10° NE
STARLINK-52 3.5 23:52:08 16° W 23:54:30 57° NNW 23:57:40 10° ENE
STARLINK-1224 4.1 23:50:41 10° WNW 23:54:49 64° NNE 23:58:56 10° ESE
STARLINK-1352 3.3 23:53:07 26° SW 23:54:57 63° SSE 23:58:31 10° ENE
